SCP
-0 -0 -0 -0 -0 -0 -0 -0 -0 -0 -0 -0 -0 -0 -0 -0 -0 -0 -0 -0 -0 -0 -0 0 0 0 0 0 0 0 0 0 0 0 0 0 0 0 0 0 0 0 0 0 0 0 0
0 0 0 0 -0 -0 -0 -0 -0 -0 -0 -0 -0 -0 -0 -0 -0 -0 -0 -0 -0 -0 0 0 0 0 0 0 0 0 0 0 0 0 0 0 0 0 0 0 0 0 0 0 0 0 0
0 0 0 0 0 -0 -0 -0 -0 -0 -0 -0 -0 -0 -0 -0 -0 -0 -0 -0 -0 0 0 -0 0 0 0 -0 0 0 0 0 0 0 0 0 0 0 0 0 0 0 0 0 0 0 0
0 0 0 0 0 -0 -0 -0 -0 -0 -0 -0 -0 -0 -0 -0 -0 -0 -0 -0 -0 0 0 0 0 0 0 0 0 0 0 0 0 0 0 0 0 0 0 0 0 0 0 0 0 0 0
0 0 0 0 0 -0 -0 -0 -0 -0 -0 -0 -0 -0 -0 -0 -0 -0 -0 -0 0 0 0 0 0 0 0 0 0 0 0 0 0 0 0 0 0 0 0 0 0 0 0 0 0 0 0
0 0 0 0 0 -0 -0 -0 -0 -0 -0 -0 -0 -0 -0 -0 -0 -0 -0 0 0 0 0 0 0 0 0 0 0 0 0 0 0 0 0 0 0 0 0 0 0 0 0 0 0 0 0
0 0 0 0 0 -0 -0 -0 -0 -0 -0 -0 -0 -0 -0 -0 -0 -0 0 0 0 0 0 0 0 0 0 0 0 0 0 0 0 0 0 0 0 0 0 0 0 0 0 0 0 0 0
0 0 0 0 0 0 -0 -0 -0 -0 -0 -0 -0 -0 -0 -0 0 0 0 0 0 0 0 0 0 0 0 0 0 0 0 0 0 0 0 0 0 0 0 0 0 0 0 0 0 0 0
0 0 0 0 0 0 0 -0 -0 -0 -0 -0 -0 -0 -0 -0 0 0 0 0 0 0 0 0 0 0 0 0 0 0 0 0 0 0 0 0 0 0 0 0 0 0 0 0 0 0 0
0 0 0 0 0 0 -0 -0 -0 -0 -0 -0 -0 -0 -0 -0 0 0 0 0 0 0 0 0 0 0 0 0 0 0 0 0 0 0 0 0 0 0 0 0 0 0 0 0 0 0 0
-0 0 0 0 0 0 -0 -0 -0 -0 -0 -0 -0 -0 0 0 0 0 0 0 0 0 0 0 0 0 0 0 0 0 0 0 0 0 0 0 0 0 0 0 0 0 0 0 0 0 0
-0 0 -0 -0 0 -0 -0 -0 -0 -0 -0 -0 -0 0 0 0 0 0 0 0 0 0 0 0 0 0 0 0 0 0 0 0 0 0 0 0 0 0 0 0 0 0 0 0 0 0 0
-0 -0 -0 -0 0 0 0 0 0 -0 -0 -0 -0 0 0 0 0 0 0 0 0 0 0 0 0 0 0 0 0 0 0 0 0 0 0 0 0 0 0 0 0 0 0 0 0 0 0
0 0 0 0 0 -0 0 -0 -0 0 -0 -0 -0 0 0 0 0 0 0 0 0 0 0 0 0 0 0 0 0 0 0 0 0 0 0 0 0 0 0 0 0 0 0 0 0 0 0
0 0 0 0 -0 -0 0 0 -0 0 -0 -0 0 0 0 0 0 0 0 0 0 0 0 0 0 0 0 0 0 0 0 0 0 0 0 0 0 0 0 0 0 0 0 0 0 0 0
0 0 0 0 0 0 0 0 0 0 0 0 0 0 0 0 0 0 0 0 0 0 0 0 0 0 0 0 0 0 0 0 0 0 0 0 0 0 0 0 0 0 0 0 0 0 0
0 0 0 0 0 0 0 0 0 0 0 0 0 0 0 0 0 0 0 0 0 0 0 0 0 0 0 0 0 0 0 0 0 0 0 0 0 0 0 0 0 0 0 0 0 0 0
0 0 0 0 0 0 0 0 0 0 0 0 0 0 0 0 0 0 0 0 0 0 0 0 0 0 0 0 0 0 0 0 0 0 0 0 0 0 0 0 0 0 0 0 0 0 0
0 0 0 0 0 0 0 0 0 0 0 0 0 0 0 0 0 0 0 0 0 0 0 0 0 0 0 0 0 0 0 0 0 0 0 0 0 0 0 0 0 0 0 0 0 0 0
0 0 0 0 0 0 0 0 0 0 0 0 0 0 0 0 0 0 0 0 0 0 0 0 0 0 0 0 0 0 0 0 0 0 0 0 0 0 0 0 0 0 0 0 0 0 0
0 0 0 0 0 0 0 0 0 0 0 0 0 0 0 0 0 0 0 0 0 0 0 0 0 0 0 0 0 0 0 0 0 0 0 0 0 0 0 0 0 0 0 0 0 0 0
0 0 0 0 0 0 0 0 0 0 0 0 0 0 0 0 0 0 0 0 0 0 0 0 0 0 0 0 0 0 0 0 0 0 0 0 0 0 0 0 0 0 0 0 0 0 0
0 0 0 0 0 0 0 0 0 0 0 0 0 0 0 0 0 0 0 0 0 0 0 0 0 0 0 0 0 0 0 0 0 0 0 0 0 0 0 0 0 0 0 0 0 0 0
0 0 0 0 0 0 0 0 0 0 0 0 0 0 0 0 0 0 0 0 0 0 0 0 0 0 0 0 0 0 0 0 0 0 0 0 0 0 0 0 0 0 0 0 0 0 0
0 0 0 0 0 0 0 0 0 0 0 0 0 0 0 0 0 0 0 0 0 0 0 0 0 0 0 0 0 0 0 0 0 0 0 0 0 0 0 0 0 0 0 0 0 0 0
0 0 0 0 0 0 0 0 0 0 0 0 0 0 0 0 0 0 0 0 0 0 0 0 0 0 0 0 0 0 0 0 0 0 0 0 0 0 0 0 0 0 0 0 0 0 0
0 0 0 0 0 0 0 0 0 0 0 0 0 0 0 0 0 0 0 0 0 0 0 0 0 0 0 0 0 0 0 0 0 0 0 0 0 0 0 0 0 0 0 0 0 0 0
0 0 0 0 0 0 0 0 0 0 0 0 0 0 0 0 0 0 0 0 0 0 0 0 0 0 0 0 0 0 0 0 0 0 0 0 0 0 0 0 0 0 0 0 0 0 0
0 0 0 0 0 0 0 0 0 0 0 0 0 0 0 0 0 0 0 0 0 0 0 0 0 0 0 0 0 0 0 0 0 0 0 0 0 0 0 0 0 0 0 0 0 0 0
Wind_Speed_500mb
58 61 62 63 63 63 62 62 63 61 58 53 48 42 39 37 35 32 30 26 23 21 15 13 14 15 16 11 7 10 4 5 18 24 18 10 3 6 5 5 4 6 7 10 19 30 29
60 62 65 66 65 64 64 64 64 64 62 58 52 46 41 38 35 33 29 25 21 19 13 12 14 18 16 8 4 11 14 13 16 23 18 9 1 5 5 6 5 8 9 21 14 18 11
59 62 65 67 68 68 66 65 65 66 65 62 56 49 43 40 37 32 30 22 16 15 11 11 12 17 24 29 12 10 17 16 12 23 15 6 7 6 3 4 4 5 7 12 8 2 6
58 62 64 67 68 68 67 66 66 66 66 65 61 54 46 41 39 33 28 16 10 11 11 11 12 17 18 16 17 25 20 21 19 19 20 12 16 11 5 2 8 4 7 3 8 1 5
58 61 65 67 70 70 69 68 68 68 67 66 64 58 49 42 37 29 21 12 8 11 12 12 13 12 18 12 15 28 24 21 21 22 20 17 11 3 3 7 10 12 5 6 11 10 1
58 61 64 66 68 71 71 71 71 70 68 66 65 60 51 41 34 21 19 6 11 9 9 11 15 8 14 2 1 24 30 24 17 13 7 6 6 6 8 9 5 4 4 6 8 0 4
59 61 64 68 72 73 73 74 74 75 71 66 64 62 53 42 32 12 14 6 11 5 10 17 19 24 19 16 29 11 36 30 24 4 3 5 5 13 16 13 12 4 6 7 11 10 2
57 60 64 69 74 76 74 75 76 75 73 68 64 62 53 42 31 2 11 10 20 17 27 45 49 58 58 26 11 23 21 25 15 13 7 8 14 15 9 8 10 9 5 14 16 8 12
59 62 65 69 74 77 75 75 76 76 74 71 64 63 54 39 21 2 4 16 21 24 9 38 22 25 25 46 35 50 23 29 10 12 15 16 17 16 11 7 6 7 9 9 15 9 3
59 62 66 68 75 75 72 74 77 79 75 71 66 61 56 34 6 6 7 12 21 18 9 14 8 5 9 13 14 62 41 26 7 23 16 11 7 15 9 10 11 7 15 10 7 7 8
59 62 64 71 74 71 74 77 79 81 79 71 67 60 48 30 13 4 13 17 15 6 10 8 5 5 16 13 2 16 50 37 20 15 14 18 14 7 7 14 12 16 8 8 6 10 8
61 64 68 72 69 69 74 78 80 78 81 74 66 56 36 18 14 20 23 16 5 11 12 13 11 15 6 9 10 7 22 19 18 10 2 14 6 13 16 5 8 2 5 13 9 7 4
60 63 65 64 65 67 73 78 83 80 77 71 62 45 19 19 21 30 20 1 9 7 11 14 9 12 4 12 12 13 6 9 6 8 11 7 6 6 6 7 6 9 11 4 6 3 11
62 62 61 59 63 71 76 79 85 82 77 69 60 24 11 12 18 25 17 9 5 3 6 7 10 15 9 17 10 16 8 8 14 9 5 11 11 9 7 5 15 6 13 11 11 8 7
58 54 57 63 69 73 74 76 83 82 80 72 54 12 20 20 20 18 10 6 9 4 6 10 12 9 9 10 10 12 12 16 11 14 3 5 5 7 10 6 3 7 5 8 12 6 5
50 53 57 64 69 71 71 73 80 83 77 69 49 4 27 24 20 9 9 7 5 4 8 4 4 6 7 11 7 10 17 10 14 17 5 6 1 5 8 7 10 6 9 5 5 9 9
50 54 58 64 67 69 70 72 74 79 74 68 40 9 30 30 14 6 5 9 7 3 1 6 2 3 3 5 5 4 12 6 10 12 19 5 7 5 4 11 6 11 8 11 7 6 11
51 56 61 63 65 66 69 71 70 72 73 68 30 8 29 28 9 6 2 10 12 6 4 6 7 5 3 7 9 8 6 7 20 2 6 1 5 5 1 9 8 8 4 5 8 5 1
55 58 60 61 62 63 65 68 65 63 64 61 41 15 20 23 7 8 14 10 6 9 4 2 5 3 5 3 3 6 7 5 22 8 4 5 1 4 14 9 4 11 2 8 9 5 10
55 57 59 59 59 61 62 64 63 57 52 45 18 8 12 19 13 6 10 10 13 25 5 4 4 3 8 4 6 6 4 1 12 5 16 6 3 11 12 10 4 6 7 6 10 6 5
55 55 55 54 56 57 58 59 58 54 45 32 13 5 7 9 6 6 2 7 9 10 12 10 5 3 2 6 1 4 3 4 4 4 8 7 5 7 8 9 5 7 12 9 13 10 11
53 52 52 52 53 54 54 54 53 51 41 18 14 12 12 11 16 9 6 3 8 12 9 8 4 2 3 6 8 10 7 5 9 1 4 4 5 3 7 13 10 12 17 16 13 8 12
50 50 50 49 49 50 49 47 46 44 37 13 16 10 8 9 9 4 1 6 6 12 8 15 9 4 6 10 16 18 16 11 10 12 11 10 10 6 7 5 6 11 18 15 7 8 10
50 49 48 47 45 44 43 40 38 35 31 23 15 13 6 8 3 4 8 14 12 12 8 21 15 2 10 10 5 7 13 18 18 20 23 11 11 5 6 3 2 7 6 5 8 7 7
48 48 45 43 40 39 37 35 32 30 24 18 11 8 5 6 8 21 10 7 19 23 7 8 6 15 14 6 4 6 7 3 5 10 7 7 9 4 7 5 10 5 1 2 5 9 4
47 44 41 39 37 35 32 30 29 27 23 13 10 9 6 7 8 4 6 14 5 7 11 8 15 20 5 5 4 8 7 3 4 3 11 8 8 7 6 6 10 7 3 8 6 8 5
42 39 37 36 34 31 29 27 27 24 22 17 11 16 10 11 17 10 8 4 12 4 5 10 21 13 6 4 5 7 7 5 6 5 8 4 3 7 4 5 11 8 8 7 7 10 7
39 35 35 33 30 29 26 25 21 20 23 17 11 17 12 13 38 49 39 29 13 6 4 14 16 4 4 3 5 6 6 5 1 3 5 7 8 6 3 2 10 2 6 6 8 10 23
35 34 32 29 27 26 25 20 17 23 20 17 10 15 22 27 33 48 62 51 40 37 38 11 8 5 4 4 1 2 1 2 2 4 4 2 8 6 13 9 8 5 7 27 31 21 41
Wind_Direction_500mb
27 23 20 17 15 14 12 10 9 7 5 1 359 359 356 350 345 338 331 324 325 327 308 287 293 304 321 314 260 179 174 192 186 178 169 155 135 127 143 214 155 183 271 258 285 294 279
21 19 17 14 12 11 10 9 7 6 5 2 358 356 354 351 346 339 332 319 319 324 308 289 292 299 305 292 215 227 225 226 194 188 183 189 106 309 179 197 160 213 267 286 295 286 270
17 15 13 12 11 11 8 8 7 5 4 2 358 354 352 350 347 341 331 317 308 313 299 286 283 287 286 266 233 202 191 211 210 195 190 205 319 256 154 304 195 276 318 334 247 230 261
13 11 10 9 9 8 7 5 4 3 2 1 359 354 350 348 346 342 336 325 312 303 288 281 279 285 267 260 236 209 199 207 218 223 226 256 327 274 265 288 19 21 45 48 279 206 214
9 9 9 8 8 7 5 3 2 0 359 358 357 354 350 346 346 346 350 344 333 296 270 265 268 269 270 270 248 208 202 195 190 212 242 260 297 276 26 68 10 4 226 232 315 192 298
9 8 7 8 7 5 3 2 1 358 355 354 353 352 350 346 345 349 352 356 353 311 262 261 251 276 260 284 80 196 195 195 199 206 259 232 160 79 42 75 237 277 21 336 271 255 20
7 7 7 6 5 3 1 360 360 358 355 351 350 348 349 344 341 348 0 332 341 319 281 248 274 252 264 250 282 236 215 218 231 262 170 39 93 221 221 200 190 229 232 236 255 233 294
7 6 5 5 3 1 359 358 358 358 355 351 348 345 348 343 340 294 34 74 22 306 298 292 278 260 256 244 254 212 227 196 166 195 131 21 246 221 181 175 205 204 258 272 284 280 162
4 2 0 359 359 357 357 358 358 358 356 352 348 343 346 344 344 168 171 28 355 334 273 302 274 257 255 226 227 241 209 191 170 157 185 173 220 133 179 219 236 237 186 239 214 7 88
358 357 356 357 356 356 356 356 356 356 355 352 350 344 345 352 28 359 181 329 334 327 32 281 275 281 185 191 233 237 220 188 186 200 151 205 227 228 185 240 160 272 197 221 197 103 225
354 353 354 353 354 356 355 355 354 353 352 351 350 345 348 356 352 82 316 321 333 345 344 296 345 345 170 196 195 217 202 194 188 175 130 231 179 172 156 220 158 231 152 196 187 156 117
351 352 350 351 354 355 354 353 354 354 350 350 350 348 354 9 55 354 327 322 153 54 254 321 0 359 343 270 346 49 183 217 231 131 33 226 234 157 208 217 197 287 99 45 54 95 121
348 348 350 354 356 356 353 351 352 356 352 348 353 353 24 45 9 4 352 34 50 147 338 335 342 345 2 336 359 21 144 43 188 144 221 330 255 272 177 150 15 86 67 322 337 355 216
346 352 356 355 353 353 353 351 349 353 354 351 356 6 73 31 355 358 6 53 163 299 331 345 341 327 52 11 19 349 46 37 19 26 100 172 284 351 350 174 178 160 148 162 215 202 244
347 353 353 354 351 349 350 350 347 352 356 352 357 68 28 3 349 347 7 68 214 258 297 339 334 33 1 3 25 29 55 6 22 7 113 152 215 323 33 34 123 185 161 171 108 26 84
349 350 352 349 347 347 349 352 349 348 353 353 353 100 9 349 339 332 74 225 243 271 318 33 82 64 11 330 53 58 23 8 341 18 264 358 72 3 311 335 35 101 150 90 19 171 227
349 347 346 344 345 346 348 352 351 346 351 356 360 347 358 347 345 37 142 233 289 318 314 30 163 19 109 4 330 68 175 356 3 334 32 60 24 289 316 32 350 352 359 40 110 129 184
341 341 341 342 342 344 346 349 352 348 348 355 2 348 342 354 32 56 10 319 317 303 7 63 93 103 73 8 10 63 91 8 347 356 99 173 155 301 255 292 275 110 120 96 128 231 333
335 336 337 338 340 342 343 344 351 352 353 351 339 306 357 3 67 346 325 305 290 341 337 90 147 144 60 60 91 107 129 13 21 44 134 192 60 38 335 357 33 88 26 94 99 79 213
329 332 333 335 337 339 340 341 344 352 351 350 341 345 349 50 72 72 3 307 328 333 325 22 97 349 107 147 22 140 129 118 353 84 54 83 133 171 197 217 174 224 187 185 139 136 211
327 327 329 332 333 334 336 338 340 348 353 353 350 15 1 319 354 356 291 321 329 329 349 19 24 111 144 193 151 161 168 324 340 340 44 88 242 207 263 269 291 268 268 226 194 199 194
321 323 325 328 329 331 333 335 338 345 356 356 3 357 342 287 307 319 6 68 5 329 347 326 90 308 76 191 216 210 177 200 222 164 126 10 249 175 286 273 258 263 267 255 235 231 249
317 320 322 324 325 327 329 334 339 345 357 11 3 338 327 307 334 338 289 335 317 356 275 48 339 5 280 259 267 239 217 223 232 180 188 166 144 125 259 350 348 291 239 231 208 198 184
316 317 318 320 322 323 326 330 335 343 353 355 349 339 338 283 313 288 324 309 294 305 263 303 323 221 334 308 297 271 268 269 265 255 195 156 142 137 210 40 226 251 317 208 183 206 210
313 313 314 314 316 318 320 324 330 335 341 344 334 332 302 279 270 300 334 300 319 316 272 271 296 337 314 293 49 2 329 352 196 36 162 153 131 88 143 214 299 281 89 63 82 282 227
311 310 310 310 312 313 315 318 321 326 328 335 290 307 289 299 247 278 313 305 285 309 325 288 322 327 289 89 105 196 221 243 269 114 69 77 79 117 159 145 221 245 166 114 135 293 38
308 307 306 307 308 308 308 311 316 320 323 331 296 270 270 267 276 275 238 273 311 283 260 323 340 329 7 118 166 185 230 203 229 224 180 129 55 165 169 221 283 248 134 118 87 247 328
304 304 304 304 304 303 305 308 311 318 323 327 286 264 280 260 275 278 275 268 226 182 156 341 340 273 340 168 157 215 191 225 254 250 185 176 151 204 109 186 272 119 84 165 226 285 314
303 302 301 302 304 303 303 303 309 304 315 313 323 254 271 273 268 282 281 266 240 255 277 267 260 284 252 95 193 107 183 43 141 225 353 210 180 191 174 219 238 249 274 292 296 277 306
Wind_Speed_850mb
58 61 62 63 63 63 62 62 63 61 58 53 48 42 39 37 35 32 30 26 23 21 15 13 14 15 16 11 7 10 4 5 18 24 18 10 3 6 5 5 4 6 7 10 19 30 29
60 62 65 66 65 64 64 64 64 64 62 58 52 46 41 38 35 33 29 25 21 19 13 12 14 18 16 8 4 11 14 13 16 23 18 9 1 5 5 6 5 8 9 21 14 18 11
59 62 65 67 68 68 66 65 65 66 65 62 56 49 43 40 37 32 30 22 16 15 11 11 12 17 24 29 12 10 17 16 12 23 15 6 7 6 3 4 4 5 7 12 8 2 6
58 62 64 67 68 68 67 66 66 66 66 65 61 54 46 41 39 33 28 16 10 11 11 11 12 17 18 16 17 25 20 21 19 19 20 12 16 11 5 2 8 4 7 3 8 1 5
58 61 65 67 70 70 69 68 68 68 67 66 64 58 49 42 37 29 21 12 8 11 12 12 13 12 18 12 15 28 24 21 21 22 20 17 11 3 3 7 10 12 5 6 11 10 1
58 61 64 66 68 71 71 71 71 70 68 66 65 60 51 41 34 21 19 6 11 9 9 11 15 8 14 2 1 24 30 24 17 13 7 6 6 6 8 9 5 4 4 6 8 0 4
59 61 64 68 72 73 73 74 74 75 71 66 64 62 53 42 32 12 14 6 11 5 10 17 19 24 19 16 29 11 36 30 24 4 3 5 5 13 16 13 12 4 6 7 11 10 2
57 60 64 69 74 76 74 75 76 75 73 68 64 62 53 42 31 2 11 10 20 17 27 45 49 58 58 26 11 23 21 25 15 13 7 8 14 15 9 8 10 9 5 14 16 8 12
59 62 65 69 74 77 75 75 76 76 74 71 64 63 54 39 21 2 4 16 21 24 9 38 22 25 25 46 35 50 23 29 10 12 15 16 17 16 11 7 6 7 9 9 15 9 3
59 62 66 68 75 75 72 74 77 79 75 71 66 61 56 34 6 6 7 12 21 18 9 14 8 5 9 13 14 62 41 26 7 23 16 11 7 15 9 10 11 7 15 10 7 7 8
59 62 64 71 74 71 74 77 79 81 79 71 67 60 48 30 13 4 13 17 15 6 10 8 5 5 16 13 2 16 50 37 20 15 14 18 14 7 7 14 12 16 8 8 6 10 8
61 64 68 72 69 69 74 78 80 78 81 74 66 56 36 18 14 20 23 16 5 11 12 13 11 15 6 9 10 7 22 19 18 10 2 14 6 13 16 5 8 2 5 13 9 7 4
60 63 65 64 65 67 73 78 83 80 77 71 62 45 19 19 21 30 20 1 9 7 11 14 9 12 4 12 12 13 6 9 6 8 11 7 6 6 6 7 6 9 11 4 6 3 11
62 62 61 59 63 71 76 79 85 82 77 69 60 24 11 12 18 25 17 9 5 3 6 7 10 15 9 17 10 16 8 8 14 9 5 11 11 9 7 5 15 6 13 11 11 8 7
58 54 57 63 69 73 74 76 83 82 80 72 54 12 20 20 20 18 10 6 9 4 6 10 12 9 9 10 10 12 12 16 11 14 3 5 5 7 10 6 3 7 5 8 12 6 5
50 53 57 64 69 71 71 73 80 83 77 69 49 4 27 24 20 9 9 7 5 4 8 4 4 6 7 11 7 10 17 10 14 17 5 6 1 5 8 7 10 6 9 5 5 9 9
50 54 58 64 67 69 70 72 74 79 74 68 40 9 30 30 14 6 5 9 7 3 1 6 2 3 3 5 5 4 12 6 10 12 19 5 7 5 4 11 6 11 8 11 7 6 11
51 56 61 63 65 66 69 71 70 72 73 68 30 8 29 28 9 6 2 10 12 6 4 6 7 5 3 7 9 8 6 7 20 2 6 1 5 5 1 9 8 8 4 5 8 5 1
55 58 60 61 62 63 65 68 65 63 64 61 41 15 20 23 7 8 14 10 6 9 4 2 5 3 5 3 3 6 7 5 22 8 4 5 1 4 14 9 4 11 2 8 9 5 10
55 57 59 59 59 61 62 64 63 57 52 45 18 8 12 19 13 6 10 10 13 25 5 4 4 3 8 4 6 6 4 1 12 5 16 6 3 11 12 10 4 6 7 6 10 6 5
55 55 55 54 56 57 58 59 58 54 45 32 13 5 7 9 6 6 2 7 9 10 12 10 5 3 2 6 1 4 3 4 4 4 8 7 5 7 8 9 5 7 12 9 13 10 11
53 52 52 52 53 54 54 54 53 51 41 18 14 12 12 11 16 9 6 3 8 12 9 8 4 2 3 6 8 10 7 5 9 1 4 4 5 3 7 13 10 12 17 16 13 8 12
50 50 50 49 49 50 49 47 46 44 37 13 16 10 8 9 9 4 1 6 6 12 8 15 9 4 6 10 16 18 16 11 10 12 11 10 10 6 7 5 6 11 18 15 7 8 10
50 49 48 47 45 44 43 40 38 35 31 23 15 13 6 8 3 4 8 14 12 12 8 21 15 2 10 10 5 7 13 18 18 20 23 11 11 5 6 3 2 7 6 5 8 7 7
48 48 45 43 40 39 37 35 32 30 24 18 11 8 5 6 8 21 10 7 19 23 7 8 6 15 14 6 4 6 7 3 5 10 7 7 9 4 7 5 10 5 1 2 5 9 4
47 44 41 39 37 35 32 30 29 27 23 13 10 9 6 7 8 4 6 14 5 7 11 8 15 20 5 5 4 8 7 3 4 3 11 8 8 7 6 6 10 7 3 8 6 8 5
42 39 37 36 34 31 29 27 27 24 22 17 11 16 10 11 17 10 8 4 12 4 5 10 21 13 6 4 5 7 7 5 6 5 8 4 3 7 4 5 11 8 8 7 7 10 7
39 35 35 33 30 29 26 25 21 20 23 17 11 17 12 13 38 49 39 29 13 6 4 14 16 4 4 3 5 6 6 5 1 3 5 7 8 6 3 2 10 2 6 6 8 10 23
35 34 32 29 27 26 25 20 17 23 20 17 10 15 22 27 33 48 62 51 40 37 38 11 8 5 4 4 1 2 1 2 2 4 4 2 8 6 13 9 8 5 7 27 31 21 41
Wind_Direction_850mb
27 23 20 17 15 14 12 10 9 7 5 1 359 359 356 350 345 338 331 324 325 327 308 287 293 304 321 314 260 179 174 192 186 178 169 155 135 127 143 214 155 183 271 258 285 294 279
21 19 17 14 12 11 10 9 7 6 5 2 358 356 354 351 346 339 332 319 319 324 308 289 292 299 305 292 215 227 225 226 194 188 183 189 106 309 179 197 160 213 267 286 295 286 270
17 15 13 12 11 11 8 8 7 5 4 2 358 354 352 350 347 341 331 317 308 313 299 286 283 287 286 266 233 202 191 211 210 195 190 205 319 256 154 304 195 276 318 334 247 230 261
13 11 10 9 9 8 7 5 4 3 2 1 359 354 350 348 346 342 336 325 312 303 288 281 279 285 267 260 236 209 199 207 218 223 226 256 327 274 265 288 19 21 45 48 279 206 214
9 9 9 8 8 7 5 3 2 0 359 358 357 354 350 346 346 346 350 344 333 296 270 265 268 269 270 270 248 208 202 195 190 212 242 260 297 276 26 68 10 4 226 232 315 192 298
9 8 7 8 7 5 3 2 1 358 355 354 353 352 350 346 345 349 352 356 353 311 262 261 251 276 260 284 80 196 195 195 199 206 259 232 160 79 42 75 237 277 21 336 271 255 20
7 7 7 6 5 3 1 360 360 358 355 351 350 348 349 344 341 348 0 332 341 319 281 248 274 252 264 250 282 236 215 218 231 262 170 39 93 221 221 200 190 229 232 236 255 233 294
7 6 5 5 3 1 359 358 358 358 355 351 348 345 348 343 340 294 34 74 22 306 298 292 278 260 256 244 254 212 227 196 166 195 131 21 246 221 181 175 205 204 258 272 284 280 162
4 2 0 359 359 357 357 358 358 358 356 352 348 343 346 344 344 168 171 28 355 334 273 302 274 257 255 226 227 241 209 191 170 157 185 173 220 133 179 219 236 237 186 239 214 7 88
358 357 356 357 356 356 356 356 356 356 355 352 350 344 345 352 28 359 181 329 334 327 32 281 275 281 185 191 233 237 220 188 186 200 151 205 227 228 185 240 160 272 197 221 197 103 225
354 353 354 353 354 356 355 355 354 353 352 351 350 345 348 356 352 82 316 321 333 345 344 296 345 345 170 196 195 217 202 194 188 175 130 231 179 172 156 220 158 231 152 196 187 156 117
351 352 350 351 354 355 354 353 354 354 350 350 350 348 354 9 55 354 327 322 153 54 254 321 0 359 343 270 346 49 183 217 231 131 33 226 234 157 208 217 197 287 99 45 54 95 121
348 348 350 354 356 356 353 351 352 356 352 348 353 353 24 45 9 4 352 34 50 147 338 335 342 345 2 336 359 21 144 43 188 144 221 330 255 272 177 150 15 86 67 322 337 355 216
346 352 356 355 353 353 353 351 349 353 354 351 356 6 73 31 355 358 6 53 163 299 331 345 341 327 52 11 19 349 46 37 19 26 100 172 284 351 350 174 178 160 148 162 215 202 244
347 353 353 354 351 349 350 350 347 352 356 352 357 68 28 3 349 347 7 68 214 258 297 339 334 33 1 3 25 29 55 6 22 7 113 152 215 323 33 34 123 185 161 171 108 26 84
349 350 352 349 347 347 349 352 349 348 353 353 353 100 9 349 339 332 74 225 243 271 318 33 82 64 11 330 53 58 23 8 341 18 264 358 72 3 311 335 35 101 150 90 19 171 227
349 347 346 344 345 346 348 352 351 346 351 356 360 347 358 347 345 37 142 233 289 318 314 30 163 19 109 4 330 68 175 356 3 334 32 60 24 289 316 32 350 352 359 40 110 129 184
341 341 341 342 342 344 346 349 352 348 348 355 2 348 342 354 32 56 10 319 317 303 7 63 93 103 73 8 10 63 91 8 347 356 99 173 155 301 255 292 275 110 120 96 128 231 333
335 336 337 338 340 342 343 344 351 352 353 351 339 306 357 3 67 346 325 305 290 341 337 90 147 144 60 60 91 107 129 13 21 44 134 192 60 38 335 357 33 88 26 94 99 79 213
329 332 333 335 337 339 340 341 344 352 351 350 341 345 349 50 72 72 3 307 328 333 325 22 97 349 107 147 22 140 129 118 353 84 54 83 133 171 197 217 174 224 187 185 139 136 211
327 327 329 332 333 334 336 338 340 348 353 353 350 15 1 319 354 356 291 321 329 329 349 19 24 111 144 193 151 161 168 324 340 340 44 88 242 207 263 269 291 268 268 226 194 199 194
321 323 325 328 329 331 333 335 338 345 356 356 3 357 342 287 307 319 6 68 5 329 347 326 90 308 76 191 216 210 177 200 222 164 126 10 249 175 286 273 258 263 267 255 235 231 249
317 320 322 324 325 327 329 334 339 345 357 11 3 338 327 307 334 338 289 335 317 356 275 48 339 5 280 259 267 239 217 223 232 180 188 166 144 125 259 350 348 291 239 231 208 198 184
316 317 318 320 322 323 326 330 335 343 353 355 349 339 338 283 313 288 324 309 294 305 263 303 323 221 334 308 297 271 268 269 265 255 195 156 142 137 210 40 226 251 317 208 183 206 210
313 313 314 314 316 318 320 324 330 335 341 344 334 332 302 279 270 300 334 300 319 316 272 271 296 337 314 293 49 2 329 352 196 36 162 153 131 88 143 214 299 281 89 63 82 282 227
311 310 310 310 312 313 315 318 321 326 328 335 290 307 289 299 247 278 313 305 285 309 325 288 322 327 289 89 105 196 221 243 269 114 69 77 79 117 159 145 221 245 166 114 135 293 38
308 307 306 307 308 308 308 311 316 320 323 331 296 270 270 267 276 275 238 273 311 283 260 323 340 329 7 118 166 185 230 203 229 224 180 129 55 165 169 221 283 248 134 118 87 247 328
304 304 304 304 304 303 305 308 311 318 323 327 286 264 280 260 275 278 275 268 226 182 156 341 340 273 340 168 157 215 191 225 254 250 185 176 151 204 109 186 272 119 84 165 226 285 314
303 302 301 302 304 303 303 303 309 304 315 313 323 254 271 273 268 282 281 266 240 255 277 267 260 284 252 95 193 107 183 43 141 225 353 210 180 191 174 219 238 249 274 292 296 277 306